This demonstration page uses our WeatherBlox Daily Observations layout. Learn more.

Left ArrowRight Arrow

Hourly Observations for August 14, 2022

Temp ( °F °C ) Dew Point ( °F °C ) Humidity (%) Winds ( mph kmh ) Pressure ( in mb ) Visibility ( mi km ) Precip ( " mm )
12:53 am 00:53 Clear 64 17.8 47 8.3 54 54 SSW 6 9 29.87 1012 10 16 0.00 0.00
1:53 am 01:53 Clear 67 19.4 49 9.4 52 52 SSW 9 15 29.87 1012 10 16 0.00 0.00
2:53 am 02:53 Clear 70 21.1 47 8.3 44 44 WSW 10 17 29.86 1011 10 16 0.00 0.00
3:53 am 03:53 Clear 65 18.3 44 6.7 47 47 SW 7 11 29.88 1012 10 16 0.00 0.00
4:53 am 04:53 Clear 67 19.4 44 6.7 44 44 VRB 7 11 29.91 1013 10 16 0.00 0.00
5:53 am 05:53 Clear 64 17.8 47 8.3 54 54 SW 12 19 29.92 1013 10 16 0.00 0.00
6:53 am 06:53 Sunny 61 16.1 48 8.9 62 62 SW 8 13 29.95 1014 10 16 0.00 0.00
7:53 am 07:53 Sunny 68 20 47 8.3 47 47 SW 10 17 29.96 1014 10 16 0.00 0.00
8:53 am 08:53 Sunny 74 23.3 47 8.3 38 38 SW 12 19 29.96 1015 10 16 0.00 0.00
9:53 am 09:53 Sunny 79 26.1 44 6.7 29 29 WSW 14 22 29.96 1015 10 16 0.00 0.00
10:53 am 10:53 Sunny 83 28.3 38 3.3 20 20 SW 17 28 29.95 1014 10 16 0.00 0.00
11:53 am 11:53 Sunny 85 29.4 37 2.8 18 18 W 16 26 29.95 1014 10 16 0.00 0.00
12:53 pm 12:53 Sunny 87 30.6 42 5.6 21 21 NW 17 28 29.93 1014 10 16 0.00 0.00
1:53 pm 13:53 Sunny 89 31.7 44 6.7 21 21 WNW 15 24 29.93 1014 10 16 0.00 0.00
2:53 pm 14:53 Sunny 90 32.2 42 5.6 19 19 WNW 10 17 29.92 1013 10 16 0.00 0.00
3:53 pm 15:53 Sunny 92 33.3 42 5.6 18 18 W 13 20 29.92 1013 10 16 0.00 0.00
4:53 pm 16:53 Sunny 91 32.8 42 5.6 18 18 W 12 19 29.91 1013 10 16 0.00 0.00
5:53 pm 17:53 Sunny 91 32.8 41 5 18 18 undefined N/A 29.90 1013 10 16 0.00 0.00
6:53 pm 18:53 Sunny 90 32.2 41 5 18 18 N 7 11 29.91 1013 10 16 0.00 0.00
7:53 pm 19:53 Sunny 87 30.6 41 5 20 20 NNE 9 15 29.91 1013 10 16 0.00 0.00
8:53 pm 20:53 Clear 81 27.2 41 5 24 24 NNE 6 9 29.92 1013 10 16 0.00 0.00
9:53 pm 21:53 Clear 77 25 42 5.6 29 29 ENE 6 9 29.94 1014 10 16 0.00 0.00
10:53 pm 22:53 Clear 74 23.3 42 5.6 32 32 E 7 11 29.95 1014 10 16 0.00 0.00
11:53 pm 23:53 Clear 67 19.4 43 6.1 42 42 ESE 7 11 29.96 1015 10 16 0.00 0.00

Powered by AerisWeather